Aérodrome :
LOGIN :

S'inscrire | Disclaimer

   EN    FR    IT 

 










Légende :    VFR   VFR Marginal   IFR   IFR Intensif   IFR Très Intensif
Visi : 
Plafond : 
>= 8 km
>= 3000ft
5 à 8 km
1000 à 3000 ft
1500m à 5 km
500 à 1000 ft
800 à 1500m
200 à 500 ft
< 800m
< 200 ft
Symboles :   Orages  Brouillard  Fortes neiges  Fortes précipitations  Vent > 20 kt
SIGMETs :   Divers  Orages  Givrage  Turbulence  Onde Orograph.  Cendres Volcan.







- Altitude de l'aérodrome : 1465 ft


LSMP - Payerne

DERNIER METAR :
  • 221350Z 36004KT 280V050 9999 SCT025 01/M04 Q1006 RMK BLU+

METARs EXPIRÉS :
  • 221320Z VRB02KT 9999 BKN023 01/M04 Q1007 RMK WHT
  • 221250Z VRB02KT 9999 BKN023 01/M04 Q1008 RMK WHT
  • 221220Z 00000KT 9999 BKN022 BKN025 01/M04 Q1008 RMK WHT
  • 221150Z VRB01KT 9999 OVC023 01/M04 Q1009 RMK WHT
  • 221120Z 00000KT 9999 FEW022 OVC025 01/M04 Q1010 RMK BLU

Prévision TAF périmée.
Pas de NOTAMs connus pour ce terrain.



MET'MAP, la Météo Aéronautique d'un coup d'oeil ! - Copyright ORBIFLY Décembre 2007 - Disclaimer

ORBIFLY MET'MAP TEAM :

Programmation & Développement : Alexandra Zaïnal
Conception & Développement : Baudouin d'Aumeries
Co-Programmation & Développement : Marc-Olivier Méhu
Soutien technique & logistique : Manuel Goepfert

Contact : metmap@orbifly.com




SOURCES & CREDITS :

   NOAA